User: anonymous   Login
Location: Caltech
(34.1382°N, 118.1253°W)
Time: 11:24:04
(UTC-07:00)
Language:

DELTA 2 R/B (1) - Orbit

View from above orbital plane
View from above orbital plane
View from above satellite
View from above satellite

Ground track
Ground track

The orbit data is extracted from the following two-line orbital elements,

1 27665U 03005C   16151.18851991 -.00000068  00000-0  68789-5 0  9998
2 27665  39.5761 260.3662 0010103 300.0540 138.5273 14.28408560696155
Epoch (UTC): 30 May 2016 04:31:28
Eccentricity: 0.0010103
inclination: 39.5761°
perigee height: 790 km
apogee height: 804 km
right ascension of ascending node: 260.3662°
argument of perigee: 300.0540°
revolutions per day: 14.28408560
mean anomaly at epoch: 138.5273°
orbit number at epoch: 69615

The dashed part of the orbit path shows where the satellite is in the earth's shadow,  

DLR